SCP
0 0 0 0 0 0 0 0 0 0 0 0 0 0 0 0 0 0 0 0 0 0 0 0 0 0 0 0 0 0 0 0 0 0 0 0 0 -0 -0 -0 -0 -0 -0 -0
0 0 0 0 0 0 0 0 0 0 0 0 0 0 0 0 0 0 0 0 0 0 0 0 0 0 0 0 0 0 0 0 0 0 0 0 0 0 -0 -0 -0 -0 -0 -0
0 0 0 0 0 0 0 0 0 0 0 0 0 0 0 0 0 0 0 0 0 0 0 0 0 0 0 0 0 0 0 0 0 0 0 0 0 0 0 -0 -0 -0 -0 -0
0 0 0 0 0 0 0 0 0 0 0 1 1 1 0 0 1 1 0 0 0 0 0 0 0 0 1 1 1 1 0 0 0 0 0 0 0 0 0 0 0 0 0 0
0 0 0 0 0 0 0 0 0 0 0 1 1 1 1 1 1 1 1 0 0 0 1 1 1 1 1 1 1 1 1 1 0 0 0 0 0 0 0 0 0 0 0 0
0 0 0 0 0 0 0 0 0 0 0 1 1 1 1 1 1 1 1 1 1 1 1 1 1 1 1 1 1 1 1 1 1 1 1 1 0 0 0 0 0 0 0 0
0 0 0 0 0 0 0 0 0 0 0 1 1 1 1 1 1 1 1 1 1 1 1 1 1 1 1 2 2 1 1 1 1 1 1 1 1 0 0 0 0 0 0 0
0 0 0 0 0 0 0 0 0 0 0 1 1 1 1 1 1 1 1 1 1 1 1 1 1 1 1 1 1 1 1 1 1 1 1 1 1 0 0 0 0 0 0 0
0 0 0 0 0 0 0 0 0 0 0 1 1 1 1 1 1 0 0 0 0 0 0 0 0 0 1 1 1 1 1 1 1 1 1 1 1 1 1 0 0 0 0 0
0 0 0 0 0 0 0 0 0 0 0 1 1 1 1 1 0 0 0 0 0 0 0 0 0 0 0 0 0 1 1 1 1 1 1 1 1 1 1 1 1 0 0 0
0 0 0 0 0 0 0 0 0 0 0 0 0 0 0 0 0 0 0 0 0 0 0 0 0 0 0 0 0 0 0 0 1 1 1 1 1 1 1 1 1 0 0 0
0 0 0 0 0 0 0 0 0 0 0 0 0 0 0 0 0 0 0 0 0 0 0 0 0 0 0 0 0 0 0 0 0 0 0 0 0 0 0 0 0 0 0 0
0 0 0 0 0 0 0 0 0 0 0 0 0 0 0 0 0 0 0 0 0 0 0 0 0 0 0 0 0 0 0 0 0 0 0 0 0 0 0 0 0 0 0 0
0 0 0 0 0 0 0 0 0 0 0 0 0 0 0 0 0 0 0 0 0 0 0 0 0 0 0 0 0 0 0 0 0 0 0 0 0 0 0 0 0 0 0 0
0 0 0 0 0 0 0 0 0 0 0 0 0 0 0 0 0 0 0 0 0 0 0 0 0 0 0 0 0 0 0 0 0 0 0 0 0 0 0 0 0 0 0 0
0 0 0 0 0 0 0 0 0 0 0 0 0 0 0 0 0 0 0 0 0 0 0 0 0 0 0 0 0 0 0 0 0 0 0 0 0 0 0 0 0 0 0 0
0 0 0 0 0 0 0 0 0 0 0 0 0 0 0 0 0 0 0 0 0 0 0 0 0 0 0 0 0 0 0 0 0 0 0 0 0 0 0 0 0 0 0 0
0 0 0 0 0 0 0 0 0 -0 0 0 0 0 0 0 0 0 0 0 0 0 0 0 0 0 0 0 0 0 0 0 0 0 0 0 0 0 0 0 0 0 0 0
0 0 0 0 0 0 0 0 0 0 0 0 0 0 0 0 0 0 0 0 0 0 0 0 0 0 0 0 0 0 0 0 0 0 0 0 0 0 0 0 0 0 0 0
0 0 0 0 0 0 0 0 0 0 0 0 0 0 0 0 0 0 0 0 0 0 0 0 0 0 0 0 0 0 0 0 0 0 0 0 0 0 0 0 0 0 0 0
0 0 0 0 0 0 0 0 0 0 0 0 0 0 0 0 0 0 0 0 0 0 0 0 0 0 0 0 0 0 0 0 0 0 0 0 0 0 0 0 0 0 0 0
0 0 0 0 0 0 0 0 0 0 0 0 0 0 0 0 0 0 0 0 0 0 0 0 0 0 0 0 0 0 0 0 0 0 0 0 0 0 0 0 0 0 0 0
0 0 0 0 0 0 0 0 0 0 0 0 0 0 0 0 0 0 0 0 0 0 0 0 0 0 0 0 0 0 0 0 0 0 0 0 0 0 0 0 0 0 0 0
0 0 0 0 0 0 0 0 0 0 0 0 0 0 0 0 0 0 0 0 0 0 0 0 0 0 0 0 0 0 0 0 0 0 0 0 0 0 0 0 0 0 0 0
0 0 0 0 0 0 0 0 0 0 0 0 0 0 0 0 0 0 0 0 0 0 0 0 0 0 0 0 0 0 0 0 0 0 0 0 0 0 0 0 0 0 0 0
0 0 0 0 0 -0 0 0 0 0 0 0 0 0 0 0 0 0 0 0 0 0 0 0 0 0 0 0 0 0 0 0 0 0 0 0 0 0 0 0 0 0 0 0
0 0 0 0 -0 -0 -0 0 0 0 0 0 0 0 0 0 0 0 0 0 0 0 0 0 0 0 0 0 0 0 0 0 0 0 0 0 0 0 0 0 0 0 0 0
Wind_Speed
3 4 2 2 3 2 3 5 5 5 6 7 7 6 5 5 5 6 8 9 11 12 11 12 13 13 13 13 13 13 12 11 11 10 9 8 8 8 8 8 9 7 7 6
3 4 3 3 3 3 3 2 3 3 4 5 4 3 3 4 5 6 6 8 11 12 12 13 14 14 13 14 13 12 13 12 11 10 9 10 9 9 8 8 7 7 8 8
2 4 4 4 3 1 1 1 2 3 4 1 1 3 5 5 6 6 5 6 9 11 13 13 14 14 14 14 12 12 12 11 11 11 11 11 11 10 10 10 8 8 8 8
1 2 4 6 1 1 2 2 2 1 1 3 5 3 1 2 4 4 4 5 7 9 10 10 10 11 12 11 12 12 12 11 11 11 11 10 9 10 10 8 8 8 8 8
3 2 4 4 1 1 2 1 3 3 3 3 4 5 3 2 1 3 4 4 4 6 7 7 8 9 9 9 10 10 11 11 11 11 11 10 10 9 8 7 7 7 6 8
3 3 4 5 4 2 2 0 2 4 4 3 4 3 1 2 4 3 2 2 3 4 5 5 6 8 10 9 9 10 10 9 9 9 10 10 10 8 6 6 7 7 7 7
3 3 4 4 5 3 2 3 1 2 3 4 3 2 1 2 4 5 6 5 6 7 6 4 4 7 8 6 6 7 7 6 6 7 8 8 8 7 6 6 6 6 7 6
2 2 5 5 4 1 3 2 1 1 2 5 5 5 5 4 5 6 7 8 8 8 7 5 5 7 7 4 3 3 4 5 5 5 5 5 6 5 5 6 6 6 5 5
2 3 3 3 1 1 1 2 1 2 3 7 8 6 5 5 6 7 7 7 7 9 8 7 6 6 6 3 3 5 6 4 3 3 3 3 4 4 3 4 4 4 4 4
1 2 2 3 3 2 2 3 2 3 5 8 8 6 6 6 6 7 7 7 7 9 9 8 6 6 5 4 5 6 6 4 3 4 3 2 3 3 3 3 3 3 4 4
1 1 2 4 2 2 4 6 7 7 7 9 10 7 7 7 6 6 7 7 8 8 9 8 7 7 7 6 6 6 5 4 3 3 2 2 2 2 3 3 4 5 5 4
3 3 3 1 1 5 7 7 7 10 11 10 10 10 8 7 6 7 7 7 8 8 8 7 7 7 6 6 6 6 5 4 3 2 2 2 2 2 2 1 2 3 3 3
2 2 4 4 6 7 8 9 10 11 11 10 9 9 8 8 7 7 8 8 8 7 6 6 7 7 6 5 6 6 4 3 2 2 2 2 2 2 1 3 3 2 1 0
5 6 7 6 6 7 9 11 11 11 10 9 8 8 9 9 8 8 7 6 7 7 7 7 8 7 5 5 6 5 4 4 3 2 2 1 1 1 1 1 1 2 1 1
5 6 7 7 9 9 8 10 12 10 9 9 8 8 9 9 8 7 6 6 8 8 7 7 7 6 5 5 6 5 4 2 2 2 2 1 1 1 1 1 0 0 1 2
7 8 9 10 10 9 9 10 10 8 7 8 7 7 7 7 7 6 6 6 7 6 5 6 5 4 4 5 5 4 3 5 4 2 2 2 2 2 2 1 1 1 1 1
9 7 8 9 8 8 8 7 7 6 7 7 6 6 7 7 7 6 5 5 5 5 4 4 3 4 4 5 4 3 3 4 5 3 2 2 1 1 1 1 1 1 1 1
8 8 8 8 8 8 7 7 7 7 6 6 7 7 7 7 5 4 3 4 5 6 5 3 3 4 5 5 3 3 2 3 3 2 2 2 2 2 1 1 1 1 2 2
10 10 9 9 8 7 7 7 6 6 5 6 7 6 5 5 4 4 4 6 5 4 3 3 5 5 5 5 5 3 3 3 3 3 3 4 3 3 2 2 2 2 1 2
10 10 10 9 8 7 7 6 6 5 4 5 6 6 5 4 3 4 5 4 2 0 1 3 4 4 4 5 5 3 3 4 3 3 3 3 3 3 3 3 2 2 2 2
9 9 9 8 7 6 5 5 5 5 4 5 5 4 3 3 3 4 4 3 2 2 3 4 3 2 3 3 5 3 3 3 3 3 3 3 3 3 3 3 3 3 3 3
7 8 8 7 6 5 4 4 4 4 4 4 4 4 4 4 4 4 3 1 0 3 3 2 2 3 4 5 3 3 3 3 3 2 2 2 2 3 3 3 3 3 3 3
6 6 6 5 5 4 4 4 4 4 4 4 4 4 3 3 2 3 1 1 1 4 3 3 5 7 6 4 3 3 3 3 3 2 2 2 2 2 2 3 3 3 3 4
5 5 4 4 5 5 4 2 3 3 4 4 4 4 4 3 3 2 1 2 4 5 3 4 8 8 6 3 3 3 3 3 3 3 3 3 3 3 3 3 3 3 4 5
4 4 5 5 4 3 2 3 4 4 4 4 4 4 3 3 2 2 2 3 5 5 3 5 7 7 5 4 3 3 3 3 3 3 3 3 3 3 3 3 4 4 4 4
4 3 2 2 2 2 2 3 3 2 3 3 3 3 3 3 4 4 3 4 6 6 4 3 4 5 4 4 4 3 3 3 4 4 4 4 4 4 4 4 5 4 4 4
4 4 3 4 3 3 3 3 2 2 2 3 2 2 3 3 4 4 5 4 4 4 3 4 4 4 3 4 4 4 4 4 4 4 4 4 3 3 4 5 4 4 4 4
Wind_Direction
234 251 257 245 241 211 194 186 187 219 207 223 214 211 210 194 172 169 177 182 183 186 186 185 184 185 185 186 185 185 184 187 191 189 185 180 179 180 180 181 186 185 185 193
335 332 330 303 287 236 243 220 209 198 236 240 221 195 186 192 173 171 183 187 187 187 188 186 188 188 185 185 185 182 185 190 189 185 184 187 188 186 184 188 188 185 193 198
296 321 356 299 272 219 234 266 171 200 237 201 169 191 197 199 187 183 190 194 186 188 193 192 191 187 187 187 181 180 187 190 188 186 189 194 194 189 192 194 192 194 201 203
182 37 243 246 246 124 134 19 36 50 218 169 168 163 145 177 170 191 203 199 197 193 193 194 191 188 184 179 178 182 186 189 190 191 195 196 192 193 198 197 197 200 205 207
153 188 264 290 313 182 150 4 15 74 73 78 95 86 27 8 91 210 208 185 185 184 180 180 180 176 166 169 174 179 186 189 189 189 192 191 194 197 197 193 198 202 203 206
151 165 221 256 293 300 111 263 15 91 92 82 67 102 284 5 47 31 37 119 131 134 129 145 164 154 153 165 167 179 185 184 183 183 183 188 193 194 192 195 204 204 207 208
171 196 243 276 314 14 129 236 299 130 126 102 83 143 179 60 59 46 46 66 96 102 104 122 139 132 141 155 178 190 178 167 169 176 184 189 189 190 192 195 199 205 212 215
159 191 252 330 1 114 207 215 160 109 101 103 95 87 79 78 75 66 55 59 75 86 81 72 96 121 125 146 173 148 139 148 168 179 185 184 181 188 189 188 194 202 211 220
190 217 285 327 319 305 146 139 119 101 115 107 89 83 80 76 75 72 67 65 70 83 83 71 73 99 112 129 119 112 115 128 142 140 144 144 158 172 172 178 190 200 204 217
238 279 325 351 6 32 94 98 87 103 110 103 100 95 83 80 80 81 75 70 71 78 78 69 64 71 80 76 95 104 111 115 118 119 120 126 140 151 161 177 191 199 204 215
226 241 33 3 7 64 82 82 80 82 85 97 99 96 95 90 79 78 79 73 75 80 77 68 63 63 58 60 72 79 81 83 91 104 121 127 131 154 176 205 201 200 209 203
217 211 157 216 113 102 100 90 90 91 82 73 81 89 87 80 75 76 76 75 75 75 75 70 68 64 55 59 73 78 74 67 67 73 86 97 96 55 9 286 251 219 216 207
158 124 116 109 95 96 96 94 92 91 90 86 78 81 84 82 74 73 71 71 75 75 72 69 65 58 47 53 67 72 72 65 58 58 65 71 82 95 5 348 18 27 21 49
125 113 97 92 98 94 97 96 90 84 82 86 85 84 81 77 75 75 74 74 76 73 67 64 60 45 32 51 63 62 62 57 61 64 64 72 91 122 161 192 315 328 329 285
80 99 115 108 97 95 96 94 88 81 79 76 75 79 81 79 76 73 70 73 73 68 59 55 53 34 21 44 57 54 52 46 47 54 53 58 60 66 68 74 93 282 328 330
94 89 96 96 97 96 93 92 92 88 86 84 79 76 80 82 79 73 70 73 75 69 64 63 50 22 24 40 45 39 29 33 49 53 49 47 45 54 52 50 41 17 335 301
108 107 106 105 103 99 94 94 95 94 90 87 85 81 80 79 73 67 60 60 71 70 70 72 48 27 35 38 39 26 18 21 33 41 40 41 43 45 44 49 22 357 309 312
104 109 111 114 111 102 94 89 88 88 88 90 87 81 79 81 81 71 59 59 57 47 35 38 46 44 32 25 26 20 27 28 28 30 28 30 25 20 17 20 9 360 334 341
97 96 92 92 95 98 96 92 88 87 86 84 83 80 82 85 87 80 68 63 59 47 3 12 46 48 25 12 24 31 37 38 36 31 32 30 29 21 19 18 15 9 353 346
91 93 93 90 88 91 90 89 88 83 82 88 86 80 73 66 73 77 71 61 48 60 2 48 53 39 19 10 27 37 38 37 37 32 31 31 24 13 6 3 359 350 343 338
88 88 88 87 85 85 86 86 89 89 83 86 90 93 87 66 67 82 86 63 347 9 53 58 48 18 9 13 26 37 38 36 34 28 23 18 13 6 3 2 358 355 351 346
79 79 79 78 76 71 66 72 81 88 83 75 77 81 79 66 62 62 66 104 339 39 52 38 15 16 25 31 35 35 32 32 33 33 29 18 12 6 0 358 353 354 348 339
85 83 79 77 80 75 62 63 74 84 85 80 77 79 87 82 85 90 47 327 18 51 48 25 20 30 35 38 40 35 28 28 27 20 11 4 2 359 353 349 345 345 341 335
80 74 73 73 76 75 68 56 63 71 73 69 69 82 92 81 46 32 88 59 60 65 52 37 42 43 43 44 41 35 26 20 13 9 11 9 6 359 355 351 345 341 338 337
77 68 69 72 69 66 61 60 61 60 61 57 51 53 63 85 89 61 52 51 61 65 47 39 41 40 42 41 36 29 25 26 26 19 13 5 357 355 354 352 347 344 344 344
78 74 72 73 72 71 73 76 70 62 71 64 41 37 45 50 59 56 53 49 50 49 42 31 28 32 38 39 33 27 24 20 21 19 14 9 2 359 356 356 354 348 343 341
64 60 56 47 38 45 63 73 77 69 76 90 74 46 49 53 57 55 53 48 45 41 35 31 33 34 35 34 34 30 24 19 16 12 6 2 360 354 352 352 348 343 344 343